[TLELIST] Archives

 

[list_settings.list_name] Current TLEs

February 29th 2012 PDT

HST 1 20580U 90037B 12059.91408266 .00001522 00000-0 10024-3 0 9526 2 20580 028.4696 138.4828 0003077 340.7439 019.3100 15.02219421998280 ISS (ZARYA) 1 25544U 98067A 12060.37913194 .00014320 00000-0 18234-3 0 1001 2 25544 051.6434 307.7106 0020547 098.2391 239.3868 15.59384757761040 CXO 1 25867U 99040B 12060.50000000 -.00000267 00000-0 00000+0 0 7076 2 25867 071.5276 012.8921 8741964 277.8896 358.5254 00.37799182 8744 ____________________________________________________________________ These 2-Line ...Continue Reading

[list_settings.list_name] Current TLEs

February 28th 2012 PDT

HST 1 20580U 90037B 12057.05726606 .00001516 00000-0 99827-4 0 9511 2 20580 028.4698 157.1677 0002957 308.4336 051.5983 15.02211418997852 ISS (ZARYA) 1 25544U 98067A 12059.13045701 .00014167 00000-0 18072-3 0 955 2 25544 051.6428 313.9844 0020529 093.6886 069.5557 15.59346801760853 CXO 1 25867U 99040B 12060.50000000 -.00000267 00000-0 00000+0 0 7076 2 25867 071.5276 012.8921 8741964 277.8896 358.5254 00.37799182 8744 ____________________________________________________________________ These 2-Line ...Continue Reading

[list_settings.list_name] Current TLEs

February 27th 2012 PDT

HST 1 20580U 90037B 12057.05726606 .00001516 00000-0 99827-4 0 9511 2 20580 028.4698 157.1677 0002957 308.4336 051.5983 15.02211418997852 ISS (ZARYA) 1 25544U 98067A 12058.10108177 .00014689 00000-0 18732-3 0 905 2 25544 051.6431 319.1559 0020586 090.1737 050.7349 15.59318864760699 CXO 1 25867U 99040B 12057.87500000 -.00000396 00000-0 00000+0 0 7069 2 25867 071.5141 013.0528 8742731 277.9125 001.1100 00.37800276 8737 ____________________________________________________________________ These 2-Line ...Continue Reading

[list_settings.list_name] Current TLEs

February 26th 2012 PDT

HST 1 20580U 90037B 12057.05726606 .00001516 00000-0 99827-4 0 9511 2 20580 028.4698 157.1677 0002957 308.4336 051.5983 15.02211418997852 ISS (ZARYA) 1 25544U 98067A 12057.49961806 .00016386 00000-0 20827-3 0 861 2 25544 051.6430 322.1808 0020486 087.0616 275.2788 15.59305158760603 CXO 1 25867U 99040B 12057.87500000 -.00000396 00000-0 00000+0 0 7069 2 25867 071.5141 013.0528 8742731 277.9125 001.1100 00.37800276 8737 ____________________________________________________________________ These 2-Line ...Continue Reading

[list_settings.list_name] Current TLEs

February 25th 2012 PDT

HST 1 20580U 90037B 12055.99426083 .00001412 00000-0 92096-4 0 9503 2 20580 028.4692 164.1213 0002988 296.0269 063.9985 15.02208872997692 ISS (ZARYA) 1 25544U 98067A 12056.24194027 .00014608 00000-0 18673-3 0 788 2 25544 051.6433 328.4976 0020538 082.9255 054.8404 15.59262387760402 CXO 1 25867U 99040B 12057.87500000 -.00000396 00000-0 00000+0 0 7069 2 25867 071.5141 013.0528 8742731 277.9125 001.1100 00.37800276 8737 ____________________________________________________________________ These 2-Line ...Continue Reading

[list_settings.list_name] Current TLEs

February 24th 2012 PDT

HST 1 20580U 90037B 12055.13056889 .00001558 00000-0 10289-3 0 9494 2 20580 028.4687 169.7711 0002983 286.5473 073.4797 15.02207347997565 ISS (ZARYA) 1 25544U 98067A 12055.40334616 .00020055 00000-0 25384-3 0 729 2 25544 051.6450 332.7074 0020572 080.2558 027.1134 15.59248306760276 CXO 1 25867U 99040B 12055.16666667 -.00000403 00000-0 00000+0 0 7059 2 25867 071.4922 013.2465 8745557 277.9126 352.4295 00.37805667 8720 ____________________________________________________________________ These 2-Line ...Continue Reading

[list_settings.list_name] Current TLEs

February 23rd 2012 PDT

HST 1 20580U 90037B 12054.06756340 .00001552 00000-0 10250-3 0 9485 2 20580 028.4682 176.7224 0003046 274.1397 085.8949 15.02204207997407 ISS (ZARYA) 1 25544U 98067A 12054.37686463 .00019696 00000-0 24981-3 0 679 2 25544 051.6448 337.8635 0020679 076.3446 025.3252 15.59205619760116 CXO 1 25867U 99040B 12055.16666667 -.00000403 00000-0 00000+0 0 7059 2 25867 071.4922 013.2465 8745557 277.9126 352.4295 00.37805667 8720 ____________________________________________________________________ These 2-Line ...Continue Reading

[list_settings.list_name] Current TLEs

February 22nd 2012 PDT

HST 1 20580U 90037B 12051.14428196 .00001392 00000-0 90649-4 0 9478 2 20580 028.4679 195.8416 0003133 239.7441 120.2829 15.02195779996966 ISS (ZARYA) 1 25544U 98067A 12053.41581140 .00019077 00000-0 24260-3 0 616 2 25544 051.6448 342.6911 0020527 072.8455 030.7627 15.59163585759962 CXO 1 25867U 99040B 12055.16666667 -.00000403 00000-0 00000+0 0 7059 2 25867 071.4922 013.2465 8745557 277.9126 352.4295 00.37805667 8720 ____________________________________________________________________ These 2-Line ...Continue Reading

[list_settings.list_name] Current TLEs

February 21st 2012 PDT

HST 1 20580U 90037B 12051.14428196 .00001392 00000-0 90649-4 0 9478 2 20580 028.4679 195.8416 0003133 239.7441 120.2829 15.02195779996966 ISS (ZARYA) 1 25544U 98067A 12052.45520840 .00015401 00000-0 19755-3 0 552 2 25544 051.6431 347.5124 0020713 067.8515 040.3551 15.59115014759813 CXO 1 25867U 99040B 12052.54166667 -.00000339 00000-0 00000+0 0 7040 2 25867 071.4670 013.4501 8746977 277.8919 355.1381 00.37805480 8717 ____________________________________________________________________ These 2-Line ...Continue Reading

[list_settings.list_name] Current TLEs

February 20th 2012 PDT

HST 1 20580U 90037B 12051.14428196 .00001392 00000-0 90649-4 0 9478 2 20580 028.4679 195.8416 0003133 239.7441 120.2829 15.02195779996966 ISS (ZARYA) 1 25544U 98067A 12051.42827708 .00023426 00000-0 29700-3 0 479 2 25544 051.6450 352.6737 0020519 064.9852 035.4779 15.59096077759653 CXO 1 25867U 99040B 12052.54166667 -.00000339 00000-0 00000+0 0 7040 2 25867 071.4670 013.4501 8746977 277.8919 355.1381 00.37805480 8717 ____________________________________________________________________ These 2-Line ...Continue Reading
  • This mailing list is a public mailing list - anyone may join or leave, at any time.
  • This mailing list is announce-only.

International Space Station (ISS) / Hubble Space Telescope (HST) / Chandra X-Ray Observatory Orbital Data via EMAIL

Privacy Policy:

Private list